Location: Newark
(39.6867°N, 100.6772°W)
Time: 09:01:07
(UTC+00:00)

Vanguard 3 - Visible Passes

Search period start: 18 October 2019 00:00
Search period end: 28 October 2019 00:00
Orbit: 508 x 3262 km, 33.3° (Epoch: 18 October)

Date Brightness Start Highest point End Pass type
(mag) Time Alt. Az. Time Alt. Az. Time Alt. Az.
18 Oct 9.7 09:20:37 16° ESE 09:20:37 16° ESE 09:22:10 10° ESE visible
18 Oct 8.6 11:25:13 23° SW 11:27:54 31° SSW 11:35:49 10° SE visible
19 Oct 8.6 10:15:37 30° SSE 10:15:37 30° SSE 10:20:33 10° SE visible
19 Oct 9.4 12:21:18 10° WSW 12:26:04 20° SSW 12:32:48 10° SSE visible
20 Oct 8.6 11:10:38 23° SSW 11:11:54 24° SSW 11:18:16 10° SE visible
21 Oct 9.3 10:01:04 19° SSE 10:01:04 19° SSE 10:03:32 10° SE visible
21 Oct 9.4 12:06:39 10° SW 12:10:00 14° SSW 12:14:14 10° S visible
22 Oct 9.0 10:56:07 18° SSW 10:56:07 18° SSW 11:00:37 10° SSE visible
24 Oct 9.5 10:41:40 12° S 10:41:40 12° S 10:42:37 10° S visible
27 Oct 9.7 02:32:01 10° SSW 02:34:30 15° S 02:34:30 15° S visible
